GW5033 Weather Reports


Display with metric or nautical units.
time (UTC)temp
F
wind
direction
speed
MPH
gust
MPH
rain 1hr
in
rain 24hr
in
rain mn
in
humidity
%
barometer
mb
20260510111004 48 210 0.0 2.0 0.00 0.08 0.07 93 1010.3
20260510110504 49 188 0.0 3.0 0.00 0.08 0.07 94 1010.1
20260510110013 48 95 0.0 3.0 0.00 0.08 0.07 94 1009.7
20260510105507 48 106 0.0 2.0 0.00 0.08 0.07 94 1009.7
20260510105006 47 100 0.0 1.0 0.00 0.08 0.07 94 1009.7
20260510104530 47 82 0.0 2.0 0.00 0.08 0.07 94 1009.7
20260510104006 47 81 0.0 2.0 0.00 0.08 0.07 94 1009.7
20260510103506 47 117 1.0 2.0 0.00 0.08 0.07 94 1009.6
20260510103023 47 346 0.0 2.0 0.00 0.08 0.07 94 1009.6
20260510102509 47 281 0.0 2.0 0.00 0.08 0.07 94 1009.7
20260510102010 47 281 1.0 2.0 0.00 0.08 0.07 94 1009.6
20260510101507 46 122 0.0 3.0 0.00 0.08 0.07 94 1009.3
20260510101003 45 111 0.0 4.0 0.00 0.08 0.07 93 1009.0
20260510100504 46 98 3.0 4.0 0.00 0.08 0.07 93 1008.8
20260510100010 46 88 2.0 4.0 0.00 0.08 0.07 94 1009.1
20260510095504 46 89 1.0 2.0 0.00 0.08 0.07 93 1009.3
20260510095004 46 81 1.0 2.0 0.00 0.08 0.07 94 1009.3
20260510094531 46 96 0.0 1.0 0.00 0.08 0.07 94 1009.4
20260510094005 46 96 0.0 1.0 0.00 0.08 0.07 94 1009.3
20260510093508 46 91 0.0 2.0 0.00 0.08 0.07 94 1009.0
20260510093021 46 63 0.0 2.0 0.00 0.08 0.07 94 1008.8
20260510092509 46 77 1.0 2.0 0.00 0.08 0.07 94 1008.7
20260510092007 46 98 0.0 2.0 0.00 0.08 0.07 94 1008.5
20260510091523 46 197 0.0 2.0 0.00 0.08 0.07 94 1008.6
20260510091008 46 240 0.0 6.0 0.00 0.08 0.07 94 1008.6
20260510090508 46 69 0.0 6.0 0.00 0.08 0.07 94 1008.6
20260510090025 46 101 3.0 5.0 0.00 0.08 0.07 94 1008.3
20260510085503 46 96 4.0 5.0 0.01 0.08 0.07 93 1008.2
20260510085006 46 94 3.0 5.0 0.01 0.08 0.07 93 1008.3
20260510084512 47 79 2.0 3.0 0.01 0.08 0.07 93 1008.4
20260510084004 47 86 0.0 3.0 0.01 0.08 0.07 93 1008.4
20260510083504 47 115 1.0 2.0 0.02 0.08 0.07 93 1008.3
20260510083017 47 113 0.0 2.0 0.02 0.08 0.07 93 1008.2
20260510082504 47 107 1.0 2.0 0.03 0.08 0.07 93 1008.2
20260510082007 47 104 0.0 2.0 0.04 0.08 0.07 93 1008.4
20260510081535 48 145 1.0 2.0 0.04 0.08 0.07 92 1008.3
20260510081009 48 70 1.0 3.0 0.04 0.08 0.07 92 1008.4
20260510080507 48 113 1.0 3.0 0.04 0.08 0.07 92 1008.6
20260510080027 48 199 1.0 4.0 0.05 0.08 0.07 92 1009.0
20260510075508 48 284 1.0 5.0 0.04 0.07 0.06 92 1009.0
20260510075008 48 194 0.0 11.0 0.05 0.07 0.06 92 1009.0
20260510074528 48 272 4.0 11.0 0.05 0.07 0.06 92 1009.0
20260510074006 48 302 1.0 6.0 0.06 0.07 0.06 92 1009.0
20260510073503 48 264 2.0 9.0 0.05 0.06 0.05 92 1009.3
20260510073016 48 285 3.0 9.0 0.05 0.06 0.05 91 1009.1
20260510072503 48 295 4.0 9.0 0.04 0.05 0.04 91 1009.0
20260510072007 48 261 3.0 10.0 0.03 0.04 0.03 90 1009.0
20260510071518 48 268 3.0 10.0 0.03 0.04 0.03 90 1009.0
20260510071004 48 263 4.0 10.0 0.03 0.04 0.03 90 1008.8
20260510070508 48 262 3.0 9.0 0.03 0.04 0.03 89 1009.0
20260510070027 49 285 3.0 9.0 0.02 0.03 0.02 88 1009.0
20260510065509 49 282 5.0 9.0 0.02 0.03 0.02 87 1009.0
20260510065005 49 183 3.0 10.0 0.01 0.02 0.01 86 1009.1
20260510064504 50 242 4.0 10.0 0.01 0.02 0.01 84 1009.0
20260510064003 50 286 4.0 8.0 0.00 0.01 0.00 83 1009.0
20260510063503 50 271 3.0 9.0 0.00 0.01 0.00 83 1008.9
20260510063016 49 307 3.0 9.0 0.00 0.01 0.00 83 1008.8
20260510062504 49 261 2.0 5.0 0.00 0.01 0.00 83 1008.7
20260510062007 49 210 0.0 2.0 0.00 0.01 0.00 83 1008.7
20260510061524 49 232 0.0 4.0 0.00 0.01 0.00 83 1008.6
20260510061007 49 219 0.0 5.0 0.00 0.01 0.00 83 1008.7
20260510060513 49 124 1.0 5.0 0.00 0.01 0.00 83 1008.5
20260510060021 49 138 1.0 2.0 0.00 0.01 0.00 83 1008.5
20260510055507 49 103 1.0 5.0 0.00 0.01 0.00 83 1008.6
20260510055010 49 117 1.0 5.0 0.00 0.01 0.00 83 1008.7
20260510054528 49 232 0.0 4.0 0.00 0.01 0.00 83 1008.7
20260510054008 49 137 0.0 4.0 0.00 0.01 0.00 83 1008.8
20260510053503 49 88 1.0 3.0 0.00 0.01 0.00 83 1008.9
20260510053008 49 136 1.0 3.0 0.00 0.01 0.00 83 1008.8
20260510052503 49 135 0.0 3.0 0.00 0.01 0.00 82 1009.0
20260510052002 49 155 1.0 3.0 0.00 0.01 0.00 82 1008.9
20260510051526 49 136 1.0 3.0 0.00 0.01 0.00 82 1008.9
20260510051004 49 140 1.0 3.0 0.00 0.01 0.00 82 1009.0
20260510050503 49 207 1.0 3.0 0.00 0.01 0.00 81 1009.0
20260510050014 49 226 1.0 3.0 0.00 0.01 0.00 81 1009.0
20260510045510 49 207 2.0 3.0 0.00 0.01 0.00 82 1009.0
20260510045008 49 203 1.0 3.0 0.00 0.01 0.00 82 1008.9
20260510044523 49 226 0.0 3.0 0.00 0.01 0.00 82 1008.8
20260510044006 49 140 0.0 2.0 0.00 0.01 0.00 82 1008.8
20260510043507 49 141 0.0 2.0 0.00 0.01 0.00 81 1008.9
20260510043027 49 160 1.0 3.0 0.00 0.01 0.00 81 1008.9
20260510042510 49 231 1.0 4.0 0.00 0.01 0.00 81 1008.8
20260510042007 49 143 1.0 4.0 0.00 0.01 0.00 81 1008.7
20260510041508 49 241 1.0 5.0 0.00 0.01 0.00 82 1008.6
20260510041004 49 211 2.0 5.0 0.00 0.01 0.00 82 1008.4
20260510040504 49 139 2.0 3.0 0.00 0.01 0.00 82 1008.3
20260510040014 49 255 1.0 4.0 0.00 0.01 0.00 82 1008.2
20260510035503 49 164 1.0 4.0 0.00 0.01 0.01 82 1008.2
20260510035006 49 124 2.0 4.0 0.00 0.01 0.01 83 1008.3
20260510034517 49 120 2.0 4.0 0.00 0.01 0.01 83 1008.5
20260510034012 49 26 1.0 4.0 0.00 0.01 0.01 82 1008.6
20260510033507 49 94 2.0 4.0 0.00 0.01 0.01 82 1008.6
20260510033022 48 124 1.0 3.0 0.00 0.01 0.01 83 1008.7
20260510032512 49 159 0.0 3.0 0.00 0.01 0.01 83 1008.8
20260510032009 49 223 0.0 3.0 0.00 0.01 0.01 82 1008.9
20260510031544 49 231 0.0 4.0 0.00 0.01 0.01 82 1008.8
20260510031007 49 148 0.0 4.0 0.00 0.01 0.01 82 1008.8
20260510030510 49 139 1.0 4.0 0.00 0.01 0.01 82 1008.7
20260510030013 49 159 1.0 4.0 0.00 0.01 0.01 82 1008.7
20260510025505 48 141 2.0 4.0 0.00 0.01 0.01 82 1008.7
20260510025005 48 112 2.0 4.0 0.00 0.01 0.01 82 1008.7
20260510024516 49 139 1.0 4.0 0.00 0.01 0.01 82 1008.7
20260510024003 48 120 1.0 4.0 0.00 0.01 0.01 82 1008.7
20260510023504 48 150 2.0 5.0 0.00 0.01 0.01 83 1008.7
20260510023020 48 122 2.0 5.0 0.00 0.01 0.01 83 1008.7
20260510022508 48 151 2.0 5.0 0.00 0.01 0.01 83 1008.7
20260510022005 48 141 2.0 6.0 0.00 0.01 0.01 84 1008.8
20260510021531 48 139 1.0 6.0 0.00 0.01 0.01 84 1008.7
20260510021007 48 98 3.0 6.0 0.00 0.01 0.01 84 1008.8
20260510020509 48 111 2.0 6.0 0.00 0.01 0.01 83 1008.8
20260510020028 48 160 2.0 6.0 0.00 0.01 0.01 84 1008.9
20260510015508 48 155 1.0 2.0 0.00 0.01 0.01 84 1009.0
20260510015009 48 146 1.0 4.0 0.00 0.01 0.01 84 1009.0
20260510014528 48 135 0.0 4.0 0.00 0.01 0.01 84 1008.9
20260510014004 48 132 0.0 5.0 0.00 0.01 0.01 84 1008.8
20260510013504 48 149 2.0 5.0 0.00 0.01 0.01 84 1008.8
20260510013017 48 148 1.0 4.0 0.00 0.01 0.01 84 1009.1
20260510012504 48 163 1.0 4.0 0.00 0.01 0.01 83 1009.1
20260510012007 48 136 2.0 3.0 0.00 0.01 0.01 83 1009.0
20260510011521 48 149 1.0 6.0 0.00 0.01 0.01 84 1009.0
20260510011005 47 140 1.0 6.0 0.00 0.01 0.01 83 1009.0
20260510010505 47 92 1.0 3.0 0.00 0.01 0.01 84 1009.0
20260510010025 47 139 1.0 3.0 0.00 0.01 0.01 84 1008.9
20260510005508 47 128 2.0 4.0 0.00 0.01 0.01 84 1009.0
20260510005008 47 140 1.0 4.0 0.00 0.01 0.01 83 1009.2
20260510004526 47 141 1.0 4.0 0.00 0.01 0.01 83 1009.2
20260510004011 47 143 1.0 3.0 0.00 0.01 0.01 83 1009.0
20260510003508 47 139 0.0 2.0 0.00 0.01 0.01 83 1009.0
20260510003028 47 148 1.0 2.0 0.00 0.01 0.01 83 1009.0
20260510002505 47 138 0.0 2.0 0.00 0.01 0.01 84 1009.1
20260510002003 47 139 0.0 2.0 0.00 0.01 0.01 84 1009.1
20260510001517 47 118 1.0 2.0 0.00 0.01 0.01 83 1009.1
20260510001006 47 146 0.0 3.0 0.00 0.01 0.01 83 1008.9
20260510000506 47 139 1.0 3.0 0.00 0.01 0.01 83 1008.7
20260510000022 47 125 0.0 3.0 0.00 0.01 0.01 83 1008.8
20260509235506 47 144 1.0 5.0 0.00 0.01 0.01 84 1008.7
20260509235006 47 136 0.0 5.0 0.00 0.01 0.01 84 1008.7
20260509234524 47 151 1.0 2.0 0.00 0.01 0.01 84 1008.7
20260509234013 47 195 0.0 2.0 0.00 0.01 0.01 83 1008.8
20260509233507 47 196 0.0 1.0 0.00 0.01 0.01 83 1008.7
20260509233027 47 148 0.0 2.0 0.00 0.01 0.01 83 1008.7
20260509232508 47 145 0.0 2.0 0.00 0.01 0.01 84 1008.6
20260509232010 47 120 1.0 3.0 0.00 0.01 0.01 83 1008.6
20260509231527 47 146 1.0 3.0 0.00 0.01 0.01 84 1008.5
20260509231008 47 122 1.0 3.0 0.00 0.01 0.01 85 1008.6
20260509230505 47 123 1.0 3.0 0.00 0.01 0.01 85 1008.6
20260509230015 47 205 1.0 3.0 0.00 0.01 0.01 86 1008.6
20260509225506 46 120 0.0 4.0 0.00 0.01 0.01 86 1008.7
20260509225006 46 132 0.0 4.0 0.00 0.01 0.01 86 1008.7
20260509224521 46 114 1.0 3.0 0.00 0.01 0.01 87 1008.7
20260509224002 46 89 1.0 3.0 0.00 0.01 0.01 87 1008.8
20260509223504 46 112 1.0 3.0 0.00 0.01 0.01 87 1008.8
20260509223005 46 147 0.0 3.0 0.00 0.01 0.01 87 1008.9
20260509222503 46 116 1.0 4.0 0.00 0.01 0.01 86 1009.0
20260509222006 46 149 1.0 4.0 0.00 0.01 0.01 86 1009.0
20260509221509 46 114 0.0 4.0 0.00 0.01 0.01 86 1009.0
20260509221002 46 137 2.0 4.0 0.00 0.01 0.01 86 1009.0
20260509220503 46 132 1.0 3.0 0.00 0.01 0.01 86 1009.0
20260509220010 46 134 1.0 3.0 0.00 0.01 0.01 86 1009.1
20260509215504 46 129 1.0 3.0 0.00 0.01 0.01 86 1009.1
20260509215001 46 127 0.0 2.0 0.00 0.01 0.01 86 1009.1
20260509214510 46 150 1.0 2.0 0.00 0.01 0.01 85 1009.1
20260509214005 46 128 1.0 2.0 0.00 0.01 0.01 84 1009.2
20260509213505 47 140 1.0 4.0 0.00 0.01 0.01 83 1009.3
20260509213004 47 138 1.0 4.0 0.00 0.01 0.01 82 1009.3
20260509212502 47 135 1.0 3.0 0.00 0.01 0.01 82 1009.3
20260509212004 47 146 1.0 3.0 0.00 0.01 0.01 82 1009.4
20260509211509 47 150 1.0 3.0 0.00 0.01 0.01 81 1009.3
20260509211005 47 139 1.0 2.0 0.00 0.01 0.01 81 1009.3
20260509210504 47 121 1.0 3.0 0.00 0.01 0.01 82 1009.4
20260509210011 47 143 1.0 3.0 0.00 0.01 0.01 81 1009.3
20260509205502 47 141 1.0 2.0 0.00 0.01 0.01 82 1009.4
20260509205002 47 141 1.0 3.0 0.00 0.01 0.01 81 1009.4
20260509204515 47 152 2.0 3.0 0.00 0.01 0.01 81 1009.4
20260509204007 48 139 1.0 3.0 0.00 0.01 0.01 82 1009.4
20260509203505 47 114 0.0 2.0 0.00 0.01 0.01 82 1009.4
20260509203013 47 192 0.0 7.0 0.00 0.01 0.01 83 1009.5
20260509202505 47 139 2.0 7.0 0.00 0.01 0.01 83 1009.5
20260509202006 47 113 1.0 4.0 0.00 0.01 0.01 84 1009.5
20260509201504 47 117 1.0 5.0 0.00 0.01 0.01 84 1009.6
20260509201003 46 139 1.0 5.0 0.00 0.01 0.01 85 1009.5
20260509200502 46 132 0.0 2.0 0.01 0.01 0.01 86 1009.5
20260509200006 46 139 1.0 2.0 0.01 0.01 0.01 86 1009.6
20260509195503 46 147 1.0 3.0 0.01 0.01 0.01 87 1009.6
20260509195003 46 131 1.0 3.0 0.01 0.01 0.01 87 1009.7
20260509194511 46 98 1.0 3.0 0.01 0.01 0.01 86 1009.7
20260509194002 46 136 1.0 2.0 0.01 0.01 0.01 86 1009.8
20260509193504 46 122 1.0 2.0 0.01 0.01 0.01 87 1009.8
20260509193013 46 114 1.0 2.0 0.01 0.01 0.01 87 1009.8
20260509192503 46 94 0.0 2.0 0.01 0.01 0.01 86 1009.9
20260509192008 47 143 0.0 1.0 0.01 0.01 0.01 84 1009.9
20260509191516 47 143 0.0 1.0 0.01 0.01 0.01 83 1009.9
20260509191005 47 138 0.0 2.0 0.01 0.01 0.01 82 1010.0
20260509190504 48 180 0.0 2.0 0.00 0.00 0.00 79 1010.1
20260509190014 48 146 0.0 2.0 0.00 0.00 0.00 79 1010.1
20260509185503 48 197 1.0 2.0 0.00 0.00 0.00 76 1010.1
20260509185003 48 190 0.0 2.0 0.00 0.00 0.00 76 1010.1
20260509184515 49 236 0.0 2.0 0.00 0.00 0.00 76 1010.2
20260509184003 49 136 1.0 3.0 0.00 0.00 0.00 75 1010.2
20260509183502 49 137 0.0 3.0 0.00 0.00 0.00 74 1010.2
20260509183010 49 145 0.0 3.0 0.00 0.00 0.00 72 1010.3
20260509182508 49 146 1.0 3.0 0.00 0.00 0.00 72 1010.3
20260509182004 49 147 0.0 3.0 0.00 0.00 0.00 73 1010.3
20260509181515 49 111 1.0 3.0 0.00 0.00 0.00 72 1010.4
20260509181008 49 117 1.0 4.0 0.00 0.00 0.00 73 1010.4
20260509180506 49 124 1.0 4.0 0.00 0.00 0.00 70 1010.6
20260509180020 49 156 1.0 2.0 0.00 0.00 0.00 71 1010.6
20260509175506 48 123 1.0 4.0 0.00 0.00 0.00 73 1010.6
20260509175007 48 122 1.0 4.0 0.00 0.00 0.00 72 1010.7
20260509174518 48 146 1.0 2.0 0.00 0.00 0.00 72 1010.8
20260509174002 48 150 1.0 3.0 0.00 0.00 0.00 73 1010.9
20260509173504 48 148 1.0 3.0 0.00 0.00 0.00 71 1010.9
20260509173024 48 142 1.0 3.0 0.00 0.00 0.00 71 1011.1
20260509172504 48 149 1.0 3.0 0.00 0.00 0.00 70 1011.1
20260509172005 49 147 0.0 3.0 0.00 0.00 0.00 71 1011.1
20260509171521 49 155 1.0 4.0 0.00 0.00 0.00 70 1011.2
20260509171004 49 150 2.0 4.0 0.00 0.00 0.00 68 1011.1
20260509170504 49 165 1.0 6.0 0.00 0.00 0.00 66 1011.2
20260509170017 49 198 1.0 6.0 0.00 0.00 0.00 65 1011.1
20260509165504 50 203 1.0 4.0 0.00 0.00 0.00 65 1011.1
20260509165007 50 136 2.0 4.0 0.00 0.00 0.00 59 1011.2
20260509164518 50 158 1.0 3.0 0.00 0.00 0.00 56 1011.2
20260509164006 49 235 0.0 3.0 0.00 0.00 0.00 61 1011.1
20260509163510 49 245 1.0 4.0 0.00 0.00 0.00 61 1011.1
20260509163023 49 212 2.0 6.0 0.00 0.00 0.00 60 1011.1
20260509162506 50 261 2.0 6.0 0.00 0.00 0.00 59 1011.2
20260509162003 50 264 3.0 5.0 0.00 0.00 0.00 58 1011.2
20260509161508 50 280 3.0 5.0 0.00 0.00 0.00 57 1011.3
20260509161005 50 305 2.0 5.0 0.00 0.00 0.00 57 1011.4
20260509160505 50 277 3.0 7.0 0.00 0.00 0.00 55 1011.4
20260509160019 50 263 2.0 7.0 0.00 0.00 0.00 55 1011.4
20260509155505 51 273 2.0 7.0 0.00 0.00 0.00 53 1011.5
20260509155010 51 268 3.0 7.0 0.00 0.00 0.00 51 1011.6
20260509154518 52 279 4.0 5.0 0.00 0.00 0.00 49 1011.5
20260509154008 52 273 3.0 5.0 0.00 0.00 0.00 47 1011.6
20260509153508 52 273 2.0 6.0 0.00 0.00 0.00 45 1011.6
20260509153030 52 252 2.0 6.0 0.00 0.00 0.00 43 1011.7
20260509152507 52 291 2.0 4.0 0.00 0.00 0.00 44 1011.7
20260509152007 52 277 3.0 6.0 0.00 0.00 0.00 44 1011.8
20260509151519 52 283 3.0 8.0 0.00 0.00 0.00 42 1011.8
20260509151011 52 265 3.0 8.0 0.00 0.00 0.00 43 1011.8
20260509150504 52 295 4.0 8.0 0.00 0.00 0.00 42 1011.7
20260509150011 53 263 4.0 7.0 0.00 0.00 0.00 42 1011.8
20260509145504 53 253 3.0 8.0 0.00 0.00 0.00 42 1011.7
20260509145006 53 276 4.0 8.0 0.00 0.00 0.00 41 1011.7
20260509144514 54 281 4.0 7.0 0.00 0.00 0.00 40 1011.7
20260509144003 54 290 3.0 7.0 0.00 0.00 0.00 40 1011.7
20260509143509 54 293 3.0 7.0 0.00 0.00 0.00 37 1011.7
20260509143019 53 312 4.0 7.0 0.00 0.00 0.00 39 1011.7
20260509142506 54 290 4.0 7.0 0.00 0.00 0.00 37 1011.7
20260509142008 54 302 2.0 5.0 0.00 0.00 0.00 40 1011.8
20260509141523 54 293 3.0 4.0 0.00 0.00 0.00 39 1011.8
20260509141011 54 262 2.0 4.0 0.00 0.00 0.00 38 1011.8
20260509140507 53 283 1.0 6.0 0.00 0.00 0.00 46 1011.8
20260509140023 52 295 1.0 6.0 0.00 0.00 0.00 43 1011.8
20260509135507 52 269 3.0 6.0 0.00 0.00 0.00 43 1011.8
20260509135004 52 269 3.0 6.0 0.00 0.00 0.00 40 1011.8
20260509134512 51 289 3.0 6.0 0.00 0.00 0.00 43 1011.8
20260509134006 51 260 3.0 6.0 0.00 0.00 0.00 42 1011.8
20260509133504 51 281 3.0 6.0 0.00 0.00 0.00 43 1011.9
20260509133018 52 281 4.0 6.0 0.00 0.00 0.00 41 1011.8
20260509132508 52 271 2.0 5.0 0.00 0.00 0.00 42 1011.8
20260509132010 53 220 2.0 4.0 0.00 0.00 0.00 40 1011.9
20260509131520 52 259 1.0 5.0 0.00 0.00 0.00 40 1012.0
20260509131010 51 218 2.0 5.0 0.00 0.00 0.00 41 1012.0
20260509130509 51 254 1.0 4.0 0.00 0.00 0.00 41 1012.0
20260509130009 51 223 3.0 5.0 0.00 0.00 0.00 40 1012.1
20260509125503 51 284 2.0 5.0 0.00 0.00 0.00 40 1012.1
20260509125002 51 262 2.0 5.0 0.00 0.00 0.00 39 1012.1
20260509124525 52 251 0.0 2.0 0.00 0.00 0.00 42 1012.2
20260509124003 52 261 1.0 3.0 0.00 0.00 0.00 41 1012.2
20260509123503 51 227 1.0 4.0 0.00 0.00 0.00 38 1012.2
20260509123015 51 274 0.0 4.0 0.00 0.00 0.00 40 1012.3
20260509122505 51 276 1.0 3.0 0.00 0.00 0.00 40 1012.3
20260509122006 51 120 2.0 4.0 0.00 0.00 0.00 40 1012.5
20260509121518 51 269 1.0 4.0 0.00 0.00 0.00 38 1012.6
20260509121005 51 278 0.0 3.0 0.00 0.00 0.00 39 1012.6
20260509120506 50 257 1.0 3.0 0.00 0.00 0.00 38 1012.5
20260509120029 51 146 2.0 3.0 0.00 0.00 0.00 41 1012.5
20260509115507 50 203 0.0 2.0 0.00 0.00 0.00 41 1012.5
20260509115010 51 234 1.0 2.0 0.00 0.00 0.00 41 1012.5
20260509114503 50 104 0.0 3.0 0.00 0.00 0.00 41 1012.6
20260509114003 50 143 1.0 3.0 0.00 0.00 0.00 41 1012.5
20260509113506 49 111 0.0 3.0 0.00 0.00 0.00 42 1012.5
20260509113011 49 154 1.0 3.0 0.00 0.00 0.00 42 1012.4
20260509112504 48 142 1.0 3.0 0.00 0.00 0.00 42 1012.5
20260509112003 47 150 0.0 3.0 0.00 0.00 0.00 48 1012.5
20260509111514 46 108 1.0 2.0 0.00 0.00 0.00 48 1012.5